VA3JLF-1 Weather Reports


time (UTC)temp
F
wind
direction
speed
knots
gust
knots
rain 1hr
in
rain 24hr
in
rain mn
in
humidity
%
barometer
mb
20260504042558 44 329 0.9 4.3 0.00 0.08 0.00 99 1004.2
20260504041557 44 328 0.9 2.6 0.00 0.08 0.00 99 1004.5
20260504040557 44 326 0.9 2.6 0.02 0.08 0.00 99 1004.8
20260504035558 45 313 0.9 3.5 0.03 0.08 0.08 99 1004.7
20260504034557 45 322 0.9 2.6 0.04 0.08 0.08 99 1004.7
20260504033557 45 332 0.9 3.5 0.05 0.08 0.08 99 1004.9
20260504032557 45 355 0.9 3.5 0.05 0.08 0.08 99 1005.0
20260504031557 45 327 0.9 3.5 0.06 0.08 0.08 99 1005.2
20260504030557 45 297 1.7 5.2 0.04 0.06 0.06 99 1005.4
20260504025557 45 293 1.7 7.0 0.03 0.05 0.05 99 1005.4
20260504024558 45 274 2.6 7.0 0.02 0.04 0.03 99 1005.0
20260504023558 46 270 0.9 7.0 0.02 0.03 0.03 99 1005.2
20260504022602 46 259 1.7 7.0 0.02 0.03 0.03 1005.0
20260504022557 46 259 1.7 7.0 0.02 0.03 0.03 99 1005.0
20260504021559 46 304 1.7 5.2 0.01 0.02 0.02 99 1005.4
20260504020559 46 286 0.9 5.2 0.02 0.02 0.02 99 1005.1
20260504015557 45 200 0.9 4.3 0.02 0.02 0.02 99 1005.0
20260504014558 45 221 0.9 3.5 0.02 0.02 0.01 98 1005.2
20260504013558 45 235 0.9 4.3 0.01 0.01 0.01 96 1005.4
20260504012558 44 276 0.9 5.2 0.01 0.01 0.01 96 1005.3
20260504011558 44 295 1.7 8.7 0.01 0.01 0.01 95 1005.2
20260504010559 45 267 2.6 8.7 0.00 0.00 0.00 91 1005.3
20260504005557 45 307 1.7 8.7 0.00 0.00 0.00 84 1005.4
20260504004558 44 207 0.9 3.5 0.00 0.00 0.00 80 1005.4
20260504003558 44 206 0.9 4.3 0.00 0.00 0.00 77 1005.1
20260504002557 45 325 0.9 4.3 0.00 0.00 0.00 74 1005.3
20260504001559 45 171 0.9 3.5 0.00 0.00 0.00 72 1005.3
20260504000559 45 11 0.9 2.6 0.00 0.00 0.00 70 1005.2
20260503235557 45 10 0.9 3.5 0.00 0.00 0.00 70 1005.3
20260503234557 45 326 0.9 3.5 0.00 0.00 0.00 69 1005.3
20260503233558 45 244 0.9 4.3 0.00 0.00 0.00 67 1005.2
20260503232558 45 333 0.9 3.5 0.00 0.00 0.00 69 1005.2
20260503231558 45 44 0.0 3.5 0.00 0.00 0.00 68 1005.2
20260503230558 46 84 0.9 2.6 0.00 0.00 0.00 68 1005.2
20260503225558 47 127 0.9 3.5 0.00 0.00 0.00 66 1005.1
20260503224559 47 98 0.9 3.5 0.00 0.00 0.00 65 1005.2
20260503223558 47 46 0.9 2.6 0.00 0.00 0.00 63 1005.2
20260503222557 47 10 0.9 3.5 0.00 0.00 0.00 65 1005.2
20260503221557 47 102 0.9 2.6 0.00 0.00 0.00 67 1005.2
20260503220558 47 173 0.9 4.3 0.00 0.00 0.00 68 1005.5
20260503215610 48 257 0.9 4.3 0.00 0.00 0.00 65 1005.5
20260503215557 48 257 0.9 4.3 0.00 0.00 0.00 65 1005.5
20260503214559 50 302 0.9 3.5 0.00 0.00 0.00 55 1005.4
20260503213557 50 295 1.7 6.1 0.00 0.00 0.00 54 1005.4
20260503212557 50 262 1.7 6.1 0.00 0.00 0.00 47 1005.3
20260503211558 52 262 0.9 7.0 0.00 0.00 0.00 52 1005.4
20260503210557 51 297 0.9 4.3 0.00 0.00 0.00 50 1005.5
20260503205557 53 299 1.7 4.3 0.00 0.00 0.00 52 1005.5
20260503204557 52 303 1.7 5.2 0.00 0.00 0.00 51 1005.6
20260503203557 52 252 1.7 5.2 0.00 0.00 0.00 53 1005.5
20260503202557 51 255 1.7 7.0 0.00 0.00 0.00 54 1005.8
20260503201557 51 293 1.7 5.2 0.00 0.00 0.00 54 1005.8
20260503200558 52 289 1.7 6.1 0.00 0.00 0.00 54 1006.1
20260503195557 52 288 1.7 6.1 0.00 0.00 0.00 56 1006.4
20260503194557 52 296 1.7 5.2 0.00 0.00 0.00 54 1006.4
20260503193558 51 285 1.7 5.2 0.00 0.00 0.00 60 1006.9
20260503192557 50 258 1.7 7.0 0.00 0.00 0.00 61 1007.1
20260503191557 49 253 2.6 7.0 0.00 0.00 0.00 63 1007.3
20260503190557 50 250 2.6 7.8 0.00 0.00 0.00 63 1007.3
20260503185557 51 249 2.6 10.4 0.00 0.00 0.00 63 1007.4
20260503184557 48 259 2.6 13.0 0.00 0.00 0.00 66 1007.4
20260503183557 49 276 2.6 10.4 0.00 0.00 0.00 65 1007.4
20260503182557 51 277 2.6 7.0 0.00 0.00 0.00 63 1007.5
20260503181557 52 278 2.6 9.6 0.00 0.00 0.00 62 1007.5
20260503180557 52 262 2.6 12.2 0.00 0.00 0.00 60 1007.5
20260503175557 52 257 2.6 8.7 0.00 0.00 0.00 61 1007.6
20260503174557 52 287 2.6 8.7 0.00 0.00 0.00 60 1007.5
20260503173557 52 296 1.7 7.8 0.00 0.00 0.00 62 1007.6
20260503172557 50 265 2.6 8.7 0.00 0.00 0.00 64 1008.1
20260503171557 50 257 2.6 10.4 0.00 0.00 0.00 63 1008.4
20260503170557 49 258 2.6 11.3 0.00 0.00 0.00 62 1008.4
20260503150558 48 259 2.6 9.6 0.00 0.00 0.00 58 1009.6
20260503130559 47 297 1.7 7.0 0.00 0.00 0.00 65 1010.2
20260503110557 33 62 1.7 4.3 0.00 0.00 0.00 91 1009.9
20260503081558 36 40 1.7 4.3 0.00 0.00 0.00 81 1009.8
20260503080558 37 25 1.7 5.2 0.00 0.00 0.00 78 1009.9
20260503072558 38 356 0.9 4.3 0.00 0.00 0.00 78 1009.9
20260503071559 39 340 1.7 6.1 0.00 0.00 0.00 77 1009.7
20260503070559 39 334 2.6 6.1 0.00 0.00 0.00 77 1009.9
20260503054558 42 323 3.5 7.8 0.00 0.00 0.00 75 1010.0
20260503053558 42 323 3.5 7.8 0.00 0.00 0.00 73 1009.9
20260503052558 42 328 2.6 6.1 0.00 0.00 0.00 75 1010.1
20260503051558 42 337 1.7 3.5 0.00 0.00 0.00 79 1010.1
20260503050558 42 335 1.7 5.2 0.00 0.00 0.00 83 1010.2
20260503045600 42 352 1.7 4.3 0.00 0.00 0.00 84 1010.3
20260503044559 42 339 1.7 5.2 0.00 0.00 0.00 84 1010.3
20260503043558 42 342 1.7 4.3 0.00 0.00 0.00 82 1010.3